User: anonymous   Login
Location: Gagetown
(45.7834°N, 66.1486°W)
Time: 10:54:14
(UTC+00:00)
Language:

JY1SAT - Orbit

View from above orbital plane
View from above orbital plane
View from above satellite
View from above satellite

Ground track
Ground track

The orbit data is extracted from the following two-line orbital elements,

1 43803U 18099AX  21263.91887021  .00000368  00000-0  37837-4 0  9994
2 43803  97.6552 332.4512 0016429  91.7305 268.5798 14.95976806152762
Epoch (UTC): 20 September 2021 22:03:10
Eccentricity: 0.0016429
inclination: 97.6552°
perigee height: 568 km
apogee height: 591 km
right ascension of ascending node: 332.4512°
argument of perigee: 91.7305°
revolutions per day: 14.95976806
mean anomaly at epoch: 268.5798°
orbit number at epoch: 15276

The dashed part of the orbit path shows where the satellite is in the earth's shadow,  

DLR